Zurück zum Katalog

IUS R/B(2)

AktivMEO
NORAD 13970·ROCKET BODY·🇺🇸 United States

Gestartet Apr 4, 1983 von Cape Canaveral Space Force Station

Loading…

Nächste Überflüge (nächste 24 Stunden)

TLE

AktuellSource: Space-Track

Epoche: Sep 14, 2026, 20:57 UTC

1 13970U 83026C   26257.87312052 -.00000129  00000-0  00000-0 0  9992
2 13970   4.6952  36.2857 1918320 220.2244  94.2482  1.32157010209739

Verfolge IUS R/B(2) in Echtzeit mit AllMySat

Download on the App Store